Regional Weather Roundup
Issued by NWS

Home | Current Version | Previous Version | Graphics & Text | Print | Product List | Glossary On
Versions: 1 2 3 4 5 6 7 8 9 10 11 12 13 14 15 16 17 18 19 20 21 22 23 24 25 26 27 28 29 30 31 32 33 34 35 36 37 38 39 40 41 42 43 44 45 46 47 48 49 50
000
ASUS43 KTOP 281959
RWRKS

WEATHER ROUNDUP FOR KANSAS
NATIONAL WEATHER SERVICE GOODLAND KS
300 PM CDT FRI JUL 28 2017

NOTE:  "FAIR" INDICATES FEW OR NO CLOUDS BELOW 12,000 FEET WITH NO
SIGNIFICANT WEATHER AND/OR OBSTRUCTIONS TO VISIBILITY.

KSZ001>006-013>018-027>032-041>047-282100-
NORTHWEST KANSAS

CITY           SKY/WX    TMP DP  RH WIND       PRES   REMARKS
GOODLAND       MOSUNNY   86  66  51 SE12G22   30.06F
HAYS           MOSUNNY   89  63  41 NE14      30.01F
HILL CITY      PTSUNNY   89  65  44 E9        30.03F
RUSSELL        MOSUNNY   88  60  38 MISG      30.01F
$$

KSZ061>065-074>080-084>089-282100-
SOUTHWEST KANSAS

CITY           SKY/WX    TMP DP  RH WIND       PRES   REMARKS
DODGE CITY     CLOUDY    89  64  43 SE5       30.03S
ELKHART          N/A     87  61  41 SE6         N/A
GARDEN CITY    MOSUNNY   88  66  48 E8        30.04F
GREAT BEND     SUNNY     89  61  38 NE8G16    30.01F
LIBERAL        MOSUNNY   90  69  50 VRB7      30.04F
$$

KSZ066>073-081>083-090>101-282100-
SOUTHEAST KANSAS

CITY           SKY/WX    TMP DP  RH WIND       PRES   REMARKS
CHANUTE        MOSUNNY   90  69  50 NE9       29.95F
COFFEYVILLE    PTSUNNY   89  69  51 N12       29.93S
HUTCHINSON     MOSUNNY   91  65  41 NE8G17    29.98F
MEDICINE LODGE   N/A     94  60  32 NE8       29.96F
NEWTON         SUNNY     88  65  46 VRB7      29.99F
PARSONS        PTSUNNY   89  70  53 VRB6      29.95S
WICHITA INTL   MOSUNNY   91  66  43 E8        29.97F
WICHITA JABRA  MOSUNNY   89  68  49 NE8       29.97F
WICHITA MCCONL MOSUNNY   89  64  43 NE13G20   29.97F
WINFIELD       SUNNY     92  66  42 NE8       29.95F
$$

KSZ007>012-019>026-033>040-048>060-102>105-282100-
NORTHEAST KANSAS

CITY           SKY/WX    TMP DP  RH WIND       PRES   REMARKS
CONCORDIA      SUNNY     86  64  47 N7        30.02F
EMPORIA        PTSUNNY   87  67  51 NE8       29.97F
LAWRENCE       MOSUNNY   85  69  58 NE8       29.99S
MANHATTAN      MOSUNNY   88  67  49 E7        29.98F
OLATHE IND     MOSUNNY   84  66  54 NE12      30.00F
OLATHE EXE     MOSUNNY   82  65  56 NE10      30.00S
SALINA         MOSUNNY   92  63  38 NE8       30.00S
TOPEKA BILLARD PTSUNNY   83  70  64 NE7       29.99S
TOPEKA FORBES  PTSUNNY   85  70  60 NE10      30.00S
$$




USA.gov is the U.S. government's official web portal to all federal, state and local government web resources and services.